sat.trackr.live / text

‹ back to catalog

CARTOSAT-2D

NORAD 41948 · 2017-008A

PAYLOAD ACTIVE UNKNOWN

§ Identity

Operator
Country
IND
Launch date
2017-02-15
Launch site
SRILR
Launch vehicle
Mass (kg)
RCS (m²)
2.23

Purposes: earth_obs

External: N2YO · Heavens-Above · Gunter

§ Orbital elements

Epoch: 2026-09-20T04:46:42.748032Z

Period
94.78 min
Inclination
97.4010°
Eccentricity
0.0003391
Mean motion
15.19237363 rev/d
Perigee alt
505.8 km
Apogee alt
510.5 km
Semi-major
6,886.3 km
B*
6.9524e-5
RAAN
320.6757°
Arg perigee
276.3007°
Mean anomaly
83.7842°
Rev number
53,200

§ Raw data

CARTOSAT-2D1 41948U 17008A   26263.19910588  .00001397  00000+0  69524-4 0  99912 41948  97.4010 320.6757 0003391 276.3007  83.7842 15.19237363532002

JSON: /api/v1/satellites/41948 · /tle

For live sub-satellite position, see the globe view (requires WebGL).

§ Visibility from observer

Set your observer location to see the next 7 days of passes ≥ 10°. The values pass through the URL so the page stays shareable.

No JS? Fill the form by hand. The geolocation button needs JavaScript.

§ Radio — SatNOGS DB

ModeDescriptionDownlinkUplink
CW Beacon 2.246 GHz
BPSK Mode U - BPSK 4K0 402.761 MHz

2 transmitters · refreshed weekly from db.satnogs.org